Back to catalog

STARLINK-2498

AliveCommunicationsVLEO
NORAD 48326·PAYLOAD·🇺🇸 United States

Launched Apr 29, 2021 from Cape Canaveral Space Force Station

Loading…

Next Passes (next 24 hours)

TLE

FreshSource: CelesTrak SupGP

Epoch: Sep 14, 2026, 13:53 UTC

1 48326C 21036BC  26257.57895833  .00047115  00000+0  15151-2 0  2574
2 48326  53.1586 302.0614 0001335  73.3880 299.6435 15.31677564    14

Track STARLINK-2498 in real time with AllMySat

Download on the App Store